This is the latest recevied weather packets stored in our database for station/object R2AKT-13. If no packets are shown the sender has not sent any weather packets the latest 10 day(s).
| Time | Temp. | Humidity | Pressure | Rain* | Wind** | Luminosity | Snow |
|---|---|---|---|---|---|---|---|
| 1777900384 | 23.89° C | 31% | 984.7 hPa | - | 0.89 m/s, 173° | - | - |
| 1777899794 | 23.33° C | 31% | 984.7 hPa | - | 1.34 m/s, 159° | - | - |
| 1777899259 | 23.33° C | 31% | 984.5 hPa | - | 1.34 m/s, 156° | - | - |
| 1777898714 | 23.89° C | 31% | 984.7 hPa | - | 1.79 m/s, 157° | - | - |
| 1777898154 | 23.89° C | 30% | 984.6 hPa | - | 1.79 m/s, 252° | - | - |
| 1777897614 | 24.44° C | 30% | 984.6 hPa | - | 1.79 m/s, 199° | - | - |
| 1777897129 | 23.89° C | 31% | 984.7 hPa | - | 1.79 m/s, 181° | - | - |
| 1777896604 | 23.89° C | 32% | 984.8 hPa | - | 0.89 m/s, 103° | - | - |
| 1777896019 | 23.89° C | 33% | 984.7 hPa | - | 1.34 m/s, 157° | - | - |
| 1777895444 | 23.89° C | 33% | 984.9 hPa | - | 1.34 m/s, 216° | - | - |
| 1777894864 | 23.33° C | 34% | 985 hPa | - | 0.89 m/s, 146° | - | - |
| 1777894314 | 22.78° C | 34% | 985 hPa | - | 0.89 m/s, 260° | - | - |
| 1777893719 | 23.33° C | 34% | 985.2 hPa | - | 1.34 m/s, 260° | - | - |
| 1777893223 | 23.89° C | 33% | 985.2 hPa | - | 1.79 m/s, 167° | - | - |
| 1777892689 | 23.33° C | 33% | 985.3 hPa | - | 1.34 m/s, 195° | - | - |
| 1777892194 | 23.33° C | 34% | 985.4 hPa | - | 0.45 m/s, 207° | - | - |
| 1777891684 | 22.78° C | 35% | 985.4 hPa | - | 1.34 m/s, 263° | - | - |
| 1777891204 | 22.78° C | 35% | 985.5 hPa | - | 0.89 m/s, 266° | - | - |
| 1777890719 | 22.22° C | 36% | 985.6 hPa | - | 1.79 m/s, 269° | - | - |
| 1777890119 | 22.78° C | 35% | 985.8 hPa | - | 0.89 m/s, 260° | - | - |
| 1777889604 | 22.78° C | 35% | 985.9 hPa | - | 0.89 m/s, 115° | - | - |
| 1777889029 | 21.67° C | 36% | 985.9 hPa | - | 0.89 m/s, 263° | - | - |
| 1777888524 | 21.67° C | 36% | 986 hPa | - | 0.45 m/s, 247° | - | - |
| 1777888019 | 22.22° C | 35% | 985.9 hPa | - | 1.79 m/s, 170° | - | - |
| 1777887439 | 21.67° C | 35% | 986.1 hPa | - | 1.34 m/s, 268° | - | - |
* Rain since midnight (hover to see other rain measurements)
** Current wind speed in m/s (hover to see current wind gust speed)